Theta_e
310 309 309 309 310 312 308 308 308 309 310 312 314 314 316 318 316 316 318 319 319 319 321 318 318 318 320 321 322 320 319 320 320 320 319 321 319 317 319 319 319 317 318 317 313 313 309 308 310 312 312 309 310 311 312 312 313 313 313 314 314 314 317
310 311 312 313 310 309 307 306 308 308 309 310 311 313 314 316 318 315 315 316 316 317 317 314 314 315 315 316 318 319 318 317 319 320 321 319 318 317 317 314 311 309 309 311 313 313 311 305 305 304 305 307 309 310 310 311 310 310 311 311 312 311 312
312 310 309 309 308 307 306 305 306 307 308 309 310 311 312 312 313 314 312 312 312 315 315 311 311 311 312 312 313 313 313 313 314 318 318 316 318 317 317 313 308 306 306 305 305 304 305 306 303 303 304 302 304 308 309 310 309 309 308 309 309 309 310
310 309 309 308 307 306 306 305 306 306 307 308 309 309 310 310 312 314 310 311 313 316 312 309 309 309 309 309 309 310 311 311 311 311 310 310 308 307 306 307 306 307 306 304 303 303 303 301 300 300 300 302 303 304 308 309 310 308 307 308 308 309 310
311 310 309 308 307 306 305 305 305 306 306 307 307 308 309 309 311 310 312 310 310 308 308 308 308 308 308 307 307 308 307 308 308 308 306 305 305 305 304 305 305 305 305 305 304 303 303 302 301 300 299 300 300 302 304 308 308 308 307 306 306 308 309
311 310 309 309 307 307 305 305 305 305 305 307 306 307 307 307 309 308 308 308 308 308 307 306 306 306 305 305 305 304 305 305 305 305 304 303 304 304 303 303 304 305 305 304 304 303 302 301 301 299 300 300 301 302 302 304 306 306 307 307 306 307 307
311 311 310 310 308 307 306 306 305 306 306 306 306 306 307 307 308 309 308 307 306 306 306 305 305 305 305 304 304 304 303 303 303 303 302 302 302 302 303 303 303 304 303 303 303 303 302 302 301 300 299 297 298 298 299 301 302 302 304 306 307 306 307
312 312 312 312 309 307 306 306 305 305 306 306 306 306 308 306 306 306 306 306 305 306 306 307 308 307 307 305 305 304 303 302 302 303 301 301 301 301 302 302 303 302 303 303 304 304 303 304 303 302 299 297 297 297 299 298 298 303 302 305 307 306 306
315 314 313 313 311 309 307 306 305 305 305 306 305 307 306 306 306 307 308 305 305 306 306 306 306 306 305 305 304 304 304 306 302 301 301 301 301 302 302 302 303 302 303 303 304 303 303 304 304 301 300 298 297 297 297 298 298 299 301 303 305 306 305
315 315 314 313 311 309 307 306 306 305 305 305 306 308 306 306 306 306 306 305 306 306 306 307 306 305 305 306 305 304 304 304 303 301 302 302 301 302 302 303 303 303 303 305 304 304 304 303 303 303 303 302 300 298 297 296 298 299 302 302 300 303 305
316 315 314 313 312 309 307 306 306 306 306 307 308 310 307 306 306 311 306 306 306 307 307 306 306 305 305 305 304 305 304 304 304 303 303 302 302 303 304 304 304 304 305 304 305 305 304 304 303 304 304 302 303 301 299 297 298 299 302 302 302 301 304
317 316 315 315 312 310 308 306 306 307 306 308 310 309 306 306 307 306 306 306 306 307 306 306 306 305 305 304 305 304 304 304 304 303 304 304 304 304 303 303 303 304 304 304 304 305 305 304 303 303 303 303 303 303 301 300 298 301 301 302 303 303 302
317 317 315 313 312 311 309 308 307 306 307 309 308 308 306 306 307 306 306 306 306 306 306 306 306 305 304 305 306 305 305 304 303 304 304 304 304 303 303 303 303 303 302 302 303 303 304 305 303 303 303 304 303 302 302 300 298 299 303 303 303 302 302
317 316 314 313 313 312 310 309 308 309 309 308 308 308 307 306 306 306 305 307 306 306 305 305 306 305 305 305 306 306 305 304 304 304 305 304 303 303 303 303 302 302 302 301 302 302 302 303 303 304 303 303 303 303 302 301 299 298 302 302 304 300 301
316 315 313 313 313 312 311 310 310 310 310 309 309 309 308 307 307 306 306 306 306 306 305 305 305 305 305 305 306 307 305 304 304 304 304 304 303 303 303 302 302 302 301 300 301 301 301 300 300 301 301 301 301 302 304 301 300 298 295 301 299 298 298
315 314 313 312 312 312 311 311 311 310 311 310 310 310 308 307 308 307 307 307 307 307 307 307 306 305 305 305 305 306 306 305 304 304 304 304 303 303 302 303 302 302 303 302 302 302 302 300 300 300 301 300 300 301 300 299 299 296 294 295 299 296 297
314 314 312 311 311 311 312 311 312 311 310 311 310 309 308 308 308 307 307 307 306 307 307 307 306 306 306 305 305 305 305 305 304 304 304 304 303 303 303 303 302 302 303 301 301 302 301 301 301 300 300 300 300 299 300 299 298 298 297 293 295 295 296
313 313 313 312 312 312 312 312 312 310 310 311 311 311 310 309 308 308 309 309 309 309 309 309 309 308 306 306 306 306 305 305 305 305 305 304 305 304 304 303 303 303 302 301 301 301 301 300 299 299 299 299 299 299 299 298 296 295 295 294 296 297 296
313 313 313 313 313 314 314 313 312 312 312 312 312 312 311 312 311 311 310 310 311 311 311 311 310 309 308 307 306 306 306 306 305 305 305 305 304 305 305 304 303 303 302 302 302 301 300 300 298 298 298 297 297 297 296 296 296 296 294 294 295 295 296
312 312 312 312 312 313 314 313 312 312 313 313 313 313 313 312 312 312 313 314 314 313 313 311 311 309 309 307 307 307 306 306 306 305 305 305 305 304 304 304 303 303 303 302 302 302 300 299 298 297 298 297 296 296 295 295 294 294 294 294 294 294 295
312 313 313 312 312 313 313 313 312 313 313 314 314 314 314 313 313 313 314 314 314 314 313 312 311 310 309 309 308 307 306 306 306 306 305 305 305 305 304 304 304 303 303 303 303 302 301 299 299 298 297 296 295 295 295 295 295 294 294 294 294 294 294
313 314 314 313 313 313 313 312 312 312 313 313 313 314 315 315 314 314 314 314 314 313 313 312 312 312 312 311 309 308 307 307 307 306 306 305 305 304 304 304 304 303 305 305 302 302 301 300 299 297 296 297 295 296 295 295 295 294 293 295 295 294 294
312 313 313 312 312 313 313 313 313 313 313 313 313 313 313 314 314 314 313 313 313 313 311 310 308 304 306 311 309 310 309 308 308 307 307 307 306 305 305 305 306 305 304 304 301 298 297 298 300 299 296 296 296 295 295 295 295 295 296 296 295 295 294
312 312 313 313 313 313 313 313 313 313 312 311 311 312 313 313 313 313 312 312 312 311 310 310 300 298 298 300 307 308 308 309 308 308 308 308 307 308 306 305 305 305 305 304 304 297 296 295 295 295 295 296 297 297 295 295 295 295 297 296 294 294 294
309 311 311 311 311 311 312 312 312 312 311 311 311 312 312 312 313 312 312 311 310 308 308 303 295 294 296 296 299 307 307 308 308 308 307 307 307 307 307 306 305 304 305 305 305 301 297 295 294 293 293 293 293 294 295 297 296 294 295 295 293 294 294
306 308 310 311 310 306 310 310 310 310 310 311 311 310 311 311 311 311 310 309 308 307 306 297 293 293 294 294 294 298 303 305 306 306 307 307 306 306 305 305 304 303 303 305 305 300 299 297 294 293 293 293 293 291 290 291 294 298 296 295 295 293 293
306 309 311 310 309 308 309 310 309 310 309 309 310 309 309 309 309 308 309 308 307 302 301 297 294 295 296 295 295 295 301 302 303 303 304 304 305 305 305 304 302 301 300 303 299 297 297 296 296 296 296 296 296 295 293 291 290 291 294 296 295 295 294
304 305 304 305 307 307 306 304 307 307 308 308 308 308 307 307 306 306 306 304 302 300 299 295 294 294 294 293 293 295 298 299 298 298 298 299 300 301 301 301 301 299 298 298 298 297 296 295 295 294 294 294 295 296 296 296 295 295 295 294 294 294 294
301 301 300 300 304 305 303 304 305 302 303 303 304 305 304 305 304 303 301 300 299 298 297 293 292 293 292 293 294 298 297 297 297 296 297 297 297 298 299 299 299 298 297 298 295 293 295 296 294 293 294 294 294 294 294 293 293 294 295 295 295 295 295
296 297 297 299 301 301 300 300 299 299 301 301 302 302 303 302 302 301 298 297 299 297 294 293 292 293 292 292 295 296 296 296 295 294 293 293 295 297 300 299 298 297 296 296 293 291 292 294 295 295 295 295 294 293 293 294 292 291 291 291 290 290 290
296 296 295 297 297 296 296 296 297 299 300 299 300 299 297 297 295 297 298 296 296 295 293 293 292 292 292 293 295 296 295 295 293 292 292 292 292 294 298 299 297 294 294 294 291 291 291 295 296 296 295 294 292 291 291 292 293 292 291 290 289 289 289
297 296 297 297 297 296 297 297 296 296 297 298 297 296 298 297 293 292 292 294 298 293 292 293 292 291 292 292 294 294 294 294 293 291 291 291 291 291 292 294 295 294 294 292 290 290 291 294 296 295 294 294 292 291 291 292 291 291 291 291 290 291 291
297 298 298 297 297 297 297 296 296 297 296 298 297 296 296 296 293 290 291 292 293 292 292 292 293 291 292 292 292 294 294 295 293 291 291 291 291 290 291 291 292 289 289 289 289 289 289 290 294 294 294 292 291 290 291 291 291 289 289 289 289 289 289
297 297 297 297 297 297 297 297 296 297 296 296 297 295 294 292 291 289 289 289 290 291 292 292 292 291 291 291 291 292 292 293 292 292 290 290 289 290 290 290 291 290 288 289 289 289 289 290 290 293 292 291 291 291 290 289 290 290 289 289 289 289 289
299 299 298 298 297 296 295 296 296 297 297 297 296 293 292 291 290 289 288 289 289 290 294 293 292 291 290 291 290 291 292 292 292 291 289 288 288 289 289 289 290 289 288 288 288 289 289 289 289 292 290 288 287 287 291 290 289 289 288 288 288 288 288
299 299 298 297 297 295 295 295 295 296 296 296 295 293 291 291 290 289 288 287 287 287 288 292 292 291 290 290 290 290 290 291 290 292 290 289 289 289 290 290 291 289 288 288 288 288 288 288 289 289 287 287 287 287 289 289 289 288 288 288 287 287 287
297 296 296 295 295 294 295 296 295 295 296 296 295 293 291 291 291 290 288 287 287 287 287 287 290 290 290 290 290 290 289 289 289 291 291 289 289 289 289 290 290 288 288 288 288 288 288 288 288 287 287 287 287 288 289 288 287 287 287 287 287 286 287
Wind_Speed
4 4 2 3 3 3 6 5 4 4 4 3 5 5 4 5 6 6 5 5 5 5 5 5 5 4 3 2 3 3 4 4 5 6 6 6 5 3 1 4 5 5 4 5 4 3 4 4 4 4 2 7 7 8 7 7 8 8 8 8 8 7 7
4 4 3 3 4 3 6 4 5 4 5 5 5 5 5 5 5 6 5 5 5 3 3 4 4 4 5 5 5 5 5 4 4 5 7 5 5 5 5 4 4 5 5 4 4 5 4 3 1 2 4 5 4 6 7 7 7 7 7 7 7 7 6
5 4 4 5 3 3 5 3 3 5 4 5 5 4 5 5 5 5 5 5 4 4 3 5 5 5 4 5 4 5 5 6 4 5 6 5 5 5 3 5 4 3 4 5 5 4 5 5 5 1 0 3 5 4 5 7 7 7 7 7 8 8 7
6 7 7 4 4 4 5 3 4 4 3 5 4 4 5 5 5 5 5 4 3 4 5 5 5 5 5 5 5 6 6 7 6 7 6 5 5 5 5 5 5 4 4 4 4 5 4 3 3 2 1 1 1 4 5 4 5 5 6 7 8 7 6
8 7 8 7 5 6 4 4 2 4 4 4 3 5 5 4 5 5 4 4 5 5 5 5 5 5 5 5 5 6 6 6 6 7 7 7 7 6 6 5 6 6 6 6 4 5 6 3 4 2 1 2 2 1 2 3 0 5 6 7 7 6 6
7 7 7 6 4 6 5 5 4 4 4 4 2 4 2 3 5 6 4 5 4 4 5 5 5 5 5 5 6 6 6 6 6 7 7 6 6 8 7 5 6 6 6 4 5 6 4 4 4 4 2 2 3 2 3 3 3 2 3 5 6 6 6
6 6 6 7 5 4 5 5 5 5 5 4 3 3 3 2 2 4 4 4 4 4 4 5 5 4 5 6 5 6 6 5 6 7 8 7 7 6 6 7 6 6 5 4 5 5 5 4 4 4 4 3 3 3 2 4 3 3 5 4 5 6 6
3 3 3 3 5 5 4 5 3 3 5 3 4 2 1 2 3 4 4 5 4 4 4 5 5 5 5 6 6 7 6 5 7 7 6 7 7 6 5 6 6 6 5 4 5 5 5 5 5 3 4 5 4 5 5 3 3 7 2 3 3 7 7
2 3 2 1 2 3 5 6 5 3 3 3 1 1 1 2 3 4 3 3 3 3 4 5 5 6 6 7 6 6 6 4 7 7 6 7 7 6 6 5 7 6 5 5 5 5 5 5 5 4 6 5 6 4 4 5 5 4 2 5 3 6 7
2 3 1 5 4 4 4 4 6 4 3 2 2 1 0 0 1 4 4 3 2 2 3 3 4 4 4 6 6 6 6 5 7 8 6 7 6 6 6 5 6 6 5 5 5 5 5 4 4 4 4 6 5 6 4 4 4 3 5 4 5 6 7
3 5 6 6 3 4 4 4 3 5 3 3 3 2 1 1 0 1 2 2 1 1 2 2 3 3 4 4 4 4 4 5 6 5 6 7 6 6 6 5 5 5 4 4 5 4 4 5 5 4 5 4 5 7 4 4 2 1 2 3 3 4 6
8 6 5 7 4 5 5 5 5 5 4 4 4 3 2 1 1 1 1 2 1 1 2 2 2 3 3 5 3 4 2 3 5 5 4 5 5 6 6 6 4 5 3 4 4 3 3 4 5 4 4 3 4 6 6 3 3 2 2 4 3 3 4
8 7 6 5 6 5 6 5 5 5 6 5 4 4 4 3 2 2 2 2 2 1 2 2 2 3 3 4 4 4 2 3 5 5 3 2 4 4 6 6 5 5 4 5 5 4 4 3 4 5 4 5 4 4 5 4 5 4 2 1 2 4 5
10 6 7 7 6 5 4 5 6 6 6 5 5 5 4 4 4 3 3 3 4 4 3 3 1 1 2 3 2 2 3 2 3 2 2 2 2 4 5 5 5 5 4 5 5 4 5 5 4 4 4 5 5 3 5 4 4 3 1 0 1 3 4
9 8 6 7 7 6 4 4 4 3 8 6 7 6 6 4 3 3 3 3 3 3 3 3 3 2 3 3 2 2 3 3 3 3 2 3 1 0 3 5 4 4 3 5 5 5 5 5 6 5 4 5 5 4 1 3 3 3 3 1 4 3 3
11 7 6 4 4 6 6 4 4 4 2 5 5 5 5 4 3 2 1 1 0 1 1 1 2 4 3 4 5 3 3 4 5 5 4 4 5 2 3 3 4 4 2 5 3 4 4 5 4 6 5 4 6 4 3 3 4 4 4 2 1 3 4
10 5 3 2 5 4 6 6 4 4 3 2 3 5 5 4 3 3 3 2 3 3 3 5 5 5 3 4 5 6 5 5 5 5 6 6 5 5 5 5 5 5 4 5 5 4 3 4 5 5 5 4 5 5 4 4 4 4 2 4 2 3 3
5 4 5 5 7 6 6 6 6 5 4 6 5 5 6 6 5 3 3 2 2 3 2 2 1 3 4 3 4 4 5 5 5 6 6 6 5 6 6 6 6 6 6 5 4 5 5 6 5 5 5 4 5 4 3 4 4 4 5 5 1 0 2
5 6 6 7 8 8 8 9 9 7 6 7 6 4 4 5 6 5 4 3 2 1 1 0 0 2 4 5 4 4 4 5 5 5 4 4 5 5 6 7 5 6 6 7 6 5 5 6 5 5 6 4 4 4 5 4 4 5 6 4 3 2 2
6 6 7 7 5 2 4 7 8 8 8 9 9 8 6 6 5 6 4 2 4 5 5 4 3 3 3 4 6 5 4 4 4 4 5 5 5 6 6 6 6 7 8 7 7 7 7 6 6 7 7 7 5 6 5 4 4 5 5 4 2 1 1
8 9 8 6 7 6 5 5 5 6 8 9 9 9 8 6 5 5 3 2 4 6 4 3 2 2 3 5 6 5 5 5 5 5 5 5 5 6 7 6 7 8 8 8 8 8 8 7 6 6 6 7 6 6 6 5 4 4 4 3 3 1 1
7 9 8 8 8 7 8 8 8 4 4 6 6 6 6 6 4 5 2 2 5 6 5 4 3 3 5 6 6 6 6 5 5 5 5 5 5 6 6 7 7 7 9 9 11 10 10 9 8 7 6 6 6 6 6 4 4 4 2 3 2 1 1
10 9 10 11 9 9 9 10 12 11 9 8 8 7 6 4 6 7 6 2 7 8 5 3 3 6 6 5 6 5 5 6 6 6 6 6 6 7 8 7 7 10 11 10 10 11 12 13 13 10 9 7 7 6 5 5 4 4 3 2 1 1 4
9 9 10 11 11 10 11 9 10 10 10 9 8 8 12 12 10 10 9 11 11 6 3 3 4 5 7 9 5 5 5 6 6 6 6 6 7 7 7 7 7 6 7 8 9 10 11 13 12 10 12 11 9 9 6 6 5 5 4 3 3 2 2
2 2 3 3 2 1 4 8 9 10 9 8 7 8 9 10 9 8 7 7 6 4 3 3 4 6 7 6 4 5 4 4 4 4 4 5 6 6 6 6 5 4 5 7 6 7 8 10 11 11 12 11 9 9 9 7 6 4 4 4 4 4 3
6 7 7 8 8 6 5 5 7 7 7 6 6 8 8 7 7 6 7 6 5 4 3 5 6 7 8 6 4 2 2 2 3 4 4 5 6 6 6 5 6 4 4 6 6 7 7 7 4 6 7 6 6 6 6 6 4 5 6 5 5 3 4
5 7 9 9 5 3 5 7 6 6 6 6 7 7 6 6 5 5 6 6 5 5 5 6 5 5 3 2 3 4 3 3 3 3 4 4 5 6 5 5 4 4 3 4 5 6 7 7 6 6 5 5 4 5 6 7 8 8 4 3 4 3 2
4 2 1 3 5 6 5 4 6 7 7 8 9 8 8 6 5 4 4 5 5 5 5 4 3 4 5 7 8 6 5 4 4 4 4 4 4 4 3 3 4 4 3 4 4 6 7 7 7 5 6 5 4 4 4 4 3 3 3 4 4 5 5
4 2 1 1 3 5 5 6 7 5 5 4 3 3 2 4 5 5 5 6 6 6 3 1 4 6 6 8 8 5 5 6 6 5 6 5 5 4 4 2 3 3 3 4 3 5 5 7 7 7 6 5 5 4 5 4 5 5 5 4 4 5 4
2 3 4 5 5 6 6 5 4 4 5 5 6 5 5 3 4 7 7 6 6 4 2 1 3 2 2 8 7 5 6 5 5 6 5 5 5 5 4 4 5 5 5 4 2 6 7 7 6 6 6 5 4 4 3 3 7 8 7 7 6 6 4
1 0 2 6 6 5 4 4 6 6 8 7 6 5 5 5 5 4 5 5 4 5 3 3 3 1 3 4 7 6 5 6 6 5 5 5 5 6 7 9 5 6 5 3 4 7 7 6 6 5 6 7 6 5 3 2 2 3 6 6 6 4 3
0 2 3 1 6 5 5 5 4 3 5 6 6 5 6 7 6 5 5 5 6 6 5 2 3 4 5 7 7 6 6 6 6 4 5 6 6 6 6 8 9 8 7 7 9 8 8 7 6 5 6 6 5 5 3 2 3 3 3 2 3 4 2
1 1 1 1 2 3 4 5 3 5 4 6 7 6 6 7 8 5 3 5 5 6 6 3 3 5 6 7 7 6 5 6 6 5 4 5 6 6 7 7 8 10 11 12 12 12 11 10 7 5 5 5 5 5 2 3 2 3 2 1 1 1 2
0 1 1 3 2 1 2 6 7 8 6 5 7 6 7 7 8 6 4 4 5 4 5 7 5 7 8 7 8 7 4 5 6 6 5 6 5 6 6 6 5 8 11 12 11 12 11 10 8 6 6 5 3 4 3 3 2 2 2 2 2 3 3
3 1 4 8 6 3 2 1 4 6 7 7 8 7 6 6 7 6 5 4 4 4 3 5 6 6 7 7 7 8 6 5 7 8 7 6 6 5 5 5 5 7 10 11 10 11 11 10 10 6 6 6 5 5 2 2 2 2 2 2 2 3 3
1 2 1 1 5 6 5 5 5 6 7 7 8 8 6 6 7 6 5 4 4 4 5 5 6 6 7 8 8 7 9 7 6 6 8 7 7 6 5 5 5 7 9 9 9 9 9 9 7 5 6 6 6 5 4 3 3 3 3 3 2 3 3
4 3 2 2 1 4 3 4 5 6 8 7 7 6 4 5 6 6 6 3 3 4 5 5 6 6 6 8 9 9 8 8 8 6 7 8 7 7 6 5 5 6 7 8 9 9 9 7 7 7 7 7 6 4 3 3 4 3 2 2 3 3 4
Wind_Direction
136 142 106 72 49 70 63 36 58 54 62 70 96 89 96 106 109 108 118 124 126 144 146 158 165 161 124 128 160 141 120 133 137 131 140 150 150 138 116 78 62 47 51 73 89 142 135 115 344 344 342 16 28 39 34 35 35 38 39 35 35 32 29
105 101 81 58 64 50 67 27 52 41 45 48 58 90 90 101 106 118 120 120 121 123 114 112 103 122 138 139 132 126 130 109 123 141 136 153 137 138 109 68 77 83 66 64 68 68 118 119 16 0 333 333 30 47 36 40 39 40 38 35 35 36 30
111 85 84 82 68 67 77 49 54 54 50 58 47 54 76 70 87 93 93 99 110 109 90 97 95 86 78 78 83 102 104 94 73 108 127 131 122 126 136 150 121 109 60 49 39 78 61 62 118 183 173 51 65 4 28 32 32 31 40 36 39 31 28
137 130 116 94 99 84 93 56 63 63 55 66 66 61 68 79 79 75 92 93 84 85 93 97 100 107 98 99 94 93 95 109 111 107 98 97 108 98 90 104 117 126 145 124 103 73 107 116 67 355 359 217 207 30 22 11 28 29 34 41 37 30 20
148 143 139 147 146 131 126 100 65 78 51 51 51 78 68 69 85 79 74 78 79 88 88 97 99 100 100 97 93 96 97 97 104 102 108 108 102 95 87 98 105 107 92 113 140 131 117 140 127 159 36 325 37 283 297 334 269 31 33 36 34 29 21
147 142 142 144 156 140 137 121 109 106 84 76 51 90 86 99 110 103 99 104 91 84 102 97 93 95 98 93 97 92 97 106 115 117 111 117 117 111 111 87 100 95 102 110 116 112 76 108 117 102 59 38 102 8 338 7 359 332 38 36 22 24 19
149 145 147 148 160 145 145 141 148 149 151 156 161 172 166 148 103 110 115 105 111 117 116 113 112 111 107 103 102 99 95 99 100 96 102 101 92 101 113 106 97 102 105 112 125 116 129 97 62 92 115 31 53 42 304 17 325 36 17 34 11 21 19
116 115 124 128 145 149 149 137 152 152 150 179 172 191 141 108 108 103 116 120 130 130 129 121 118 111 107 101 100 107 103 107 99 103 106 112 110 115 103 111 111 92 106 114 108 101 120 110 119 140 130 119 48 31 29 358 345 57 323 319 1 20 21
111 93 62 99 160 164 156 149 161 172 163 145 176 116 177 114 131 123 113 130 137 133 128 128 128 120 121 113 113 117 119 137 115 111 120 108 112 111 108 112 99 106 119 115 107 117 105 122 114 113 94 85 110 65 5 38 18 20 332 28 339 26 15
103 83 302 246 189 163 158 154 156 167 133 113 108 66 344 43 146 132 136 140 146 130 116 114 117 119 122 120 126 126 127 136 118 124 127 114 125 125 116 114 115 122 122 117 108 113 119 113 116 119 103 103 112 106 65 52 9 25 359 17 34 357 11
294 173 215 243 176 158 157 142 125 136 159 145 116 95 68 28 358 81 112 123 69 81 101 85 91 102 101 101 116 117 133 134 120 122 128 128 133 126 119 111 119 119 137 121 135 137 128 128 122 111 114 112 116 106 147 97 53 212 331 343 48 360 357
211 232 187 202 177 175 172 169 167 161 130 136 135 126 113 91 57 57 55 98 100 119 98 115 111 108 107 106 101 105 94 106 116 124 138 131 146 127 127 121 112 118 136 125 121 122 125 126 116 111 107 114 101 121 126 134 89 331 158 28 337 356 349
237 198 199 187 181 187 181 174 163 149 168 152 149 144 145 155 147 126 108 138 147 141 149 138 126 128 109 122 127 124 117 102 122 135 137 98 130 127 126 129 141 134 129 108 99 101 106 105 125 121 121 110 106 119 124 115 107 71 221 59 4 321 5
254 235 197 190 181 182 183 171 189 174 138 163 152 157 166 170 167 158 153 163 175 176 178 169 131 110 114 104 66 74 80 45 84 58 71 89 73 135 136 138 155 152 132 115 122 113 103 105 96 95 104 108 103 117 117 110 106 115 1 37 313 347 347
251 263 236 200 184 168 170 198 168 175 169 178 169 168 175 170 163 159 158 169 175 185 183 180 155 129 135 126 126 117 139 125 115 113 82 149 298 332 134 140 158 149 125 126 138 131 133 134 122 116 134 120 118 110 181 116 99 107 64 300 5 343 6
226 234 246 263 199 165 168 175 163 183 243 178 171 161 151 144 141 135 137 164 250 267 293 204 167 165 171 169 167 175 176 165 159 161 171 196 191 149 157 170 179 156 115 109 109 123 123 122 120 115 122 118 107 102 70 87 119 90 75 65 248 10 5
227 206 177 222 226 199 164 162 161 170 139 113 115 100 109 114 103 101 98 88 83 63 42 15 350 330 285 195 179 185 183 188 187 183 186 184 181 177 189 188 204 173 158 141 158 139 130 115 116 114 111 90 107 111 92 82 80 126 143 87 4 44 350
199 153 166 220 219 197 162 145 141 143 130 120 131 126 114 112 105 97 103 115 123 124 138 144 217 282 299 280 245 206 199 197 199 198 196 193 184 184 188 204 198 178 170 158 173 153 152 139 138 124 118 119 110 115 85 85 90 100 110 95 77 274 322
178 178 185 201 196 190 170 157 150 139 135 130 112 76 90 89 103 98 79 57 8 258 196 90 84 210 263 284 266 231 215 214 216 206 199 198 200 202 200 208 203 188 182 181 187 174 163 151 140 129 126 128 122 107 106 90 94 87 90 106 113 33 333
159 167 186 193 204 217 164 142 137 148 151 142 134 129 125 117 115 103 88 37 347 340 345 355 306 288 288 260 252 248 237 233 233 222 213 207 206 208 213 211 197 195 197 199 180 180 173 165 160 159 154 149 148 128 121 123 110 96 96 107 85 99 1
162 171 178 153 136 148 152 141 123 130 138 139 141 137 133 125 111 87 81 31 321 295 277 269 286 272 236 230 228 229 226 232 240 242 236 229 217 219 222 221 212 201 206 202 191 185 171 170 166 157 170 149 151 134 132 142 116 112 113 100 89 89 348
176 175 161 154 152 143 130 117 112 114 144 134 117 105 107 104 108 122 131 182 254 260 261 259 258 234 223 223 211 216 221 228 235 249 259 255 244 237 235 227 222 218 215 217 204 187 181 167 161 167 182 160 154 137 138 133 131 118 109 96 87 107 34
179 174 157 156 164 158 148 146 150 159 165 159 153 140 116 147 178 173 161 228 252 248 232 213 193 204 213 211 204 205 203 213 216 221 231 240 246 236 238 234 233 225 224 227 220 203 188 177 180 175 168 173 159 146 142 133 133 136 122 123 123 95 358
174 172 174 165 160 157 161 170 159 161 170 174 171 172 179 184 189 197 183 205 227 235 223 199 211 231 226 228 222 215 214 227 220 223 222 227 241 246 246 242 244 236 229 228 222 213 196 189 185 173 168 172 166 152 146 140 160 154 161 184 167 143 190
4 20 26 22 57 108 136 154 165 176 179 176 179 181 189 189 184 184 179 185 197 193 195 204 226 254 264 261 238 227 230 243 257 256 257 250 254 255 257 259 253 242 226 219 204 190 200 201 181 174 169 170 171 165 161 156 155 157 178 177 188 204 169
122 132 132 147 186 184 193 184 176 179 183 181 168 182 192 180 186 164 161 167 172 168 183 193 214 235 235 237 245 207 245 243 255 261 255 250 251 252 253 255 260 239 238 207 188 175 173 179 165 153 145 121 78 62 52 61 85 156 170 173 191 202 183
161 179 184 177 141 169 212 197 179 172 162 169 183 184 176 189 173 163 167 168 162 168 186 191 210 233 235 194 200 172 165 177 193 233 260 264 260 255 247 238 229 229 210 165 161 161 154 141 133 119 108 101 99 59 52 60 69 69 76 148 158 152 178
220 260 348 128 162 190 183 176 174 182 174 177 179 179 179 185 185 159 144 142 149 172 189 158 224 224 197 177 149 132 118 112 102 77 42 22 3 343 304 201 190 186 153 140 145 154 141 134 122 111 105 92 71 45 40 26 34 94 106 108 121 133 151
263 225 145 127 171 192 190 184 181 176 166 178 182 146 128 147 155 146 137 142 155 167 185 240 240 215 186 119 98 85 83 72 67 51 35 20 15 21 41 76 123 100 101 87 79 117 116 121 120 122 115 99 77 64 55 24 38 57 83 98 107 120 145
274 218 171 171 181 187 181 192 185 166 165 181 172 182 181 149 142 141 143 151 146 156 154 4 19 3 246 115 91 85 84 77 65 59 38 20 17 20 34 73 93 106 94 86 105 122 115 113 116 123 112 91 88 93 76 42 41 48 62 76 75 74 85
64 317 191 163 177 176 177 165 167 172 159 162 162 156 132 100 70 98 132 138 127 140 150 29 58 223 194 121 121 112 106 96 78 73 62 36 26 29 35 61 85 86 87 67 118 121 120 113 107 110 112 115 112 101 92 66 74 48 49 69 44 20 89
34 62 325 213 148 147 159 158 146 122 115 109 109 107 105 98 79 69 93 112 125 134 131 114 113 128 119 118 113 116 110 105 94 64 76 63 42 46 43 44 60 79 83 85 80 79 79 89 98 102 113 112 99 86 87 108 99 79 39 10 354 13 10
256 134 136 34 334 123 125 104 109 98 85 108 113 105 105 114 113 101 99 123 139 151 135 127 110 118 120 113 122 123 125 113 122 112 82 83 77 52 50 53 50 57 67 67 68 70 66 74 88 81 86 93 115 111 150 134 115 116 133 116 245 339 294
302 128 137 138 142 37 121 141 134 123 124 107 110 110 114 120 116 121 130 137 134 137 150 142 134 125 118 119 123 118 106 113 126 114 100 79 84 91 71 57 54 58 70 71 71 68 70 70 73 74 72 83 81 136 133 92 91 81 74 49 5 349 338
109 157 156 122 106 99 10 64 123 129 127 124 118 117 122 124 122 119 110 108 116 116 108 112 120 98 104 109 114 119 113 132 140 122 100 96 97 87 96 86 68 67 73 73 73 73 73 73 75 77 81 100 96 98 96 111 116 80 53 38 5 346 335
213 148 134 158 132 128 142 137 136 125 124 124 127 134 139 139 118 108 88 68 61 60 46 49 72 88 91 102 103 101 116 126 134 119 127 133 135 130 121 105 93 82 82 82 80 78 75 75 72 77 91 84 85 84 79 70 57 45 30 18 3 336 321
225 192 150 113 66 102 116 137 137 147 140 133 132 129 137 121 109 113 111 71 50 42 34 54 50 71 91 95 98 108 114 124 133 130 125 135 139 131 124 118 113 103 99 95 92 86 81 79 86 82 84 93 93 85 87 70 51 43 19 359 345 315 304